GW4499 Weather Reports


Display with metric or nautical units.
time (UTC)temp
F
wind
direction
speed
MPH
gust
MPH
rain 1hr
in
rain 24hr
in
rain mn
in
humidity
%
barometer
mb
20260507003539 42 113 1.0 4.0 0.00 0.92 0.85 64 1017.5
20260507002519 42 135 1.0 4.0 0.00 0.92 0.85 66 1017.5
20260507001519 42 158 1.0 7.0 0.00 0.93 0.85 63 1017.6
20260507000539 42 180 1.0 4.0 0.00 0.93 0.85 61 1017.7
20260506235519 43 135 1.0 3.0 0.00 0.93 0.85 61 1017.7
20260506234519 43 158 2.0 3.0 0.01 0.93 0.85 63 1018.2
20260506233539 43 113 1.0 3.0 0.01 0.93 0.85 62 1018.2
20260506232519 43 270 1.0 5.0 0.01 0.93 0.85 61 1018.3
20260506231519 43 158 1.0 4.0 0.01 0.93 0.85 62 1018.3
20260506230519 43 158 2.0 7.0 0.02 0.93 0.85 63 1018.3
20260506225518 43 180 3.0 7.0 0.02 0.93 0.85 58 1018.2
20260506224539 43 203 2.0 6.0 0.02 0.92 0.84 58 1018.2
20260506223518 44 135 2.0 5.0 0.02 0.92 0.84 62 1018.4
20260506222539 44 135 1.0 5.0 0.03 0.92 0.84 59 1018.6
20260506221519 44 135 1.0 4.0 0.03 0.93 0.84 58 1018.7
20260506220518 43 158 2.0 5.0 0.03 0.92 0.83 59 1018.7
20260506215519 43 158 2.0 5.0 0.04 0.93 0.83 62 1018.9
20260506214519 43 158 3.0 8.0 0.06 0.93 0.82 59 1019.2
20260506213539 43 0.0 3.0 0.09 0.94 0.82 65 1019.4
20260506212539 43 113 2.0 5.0 0.09 0.94 0.81 60 1019.6
20260506211518 44 0.0 1.0 0.12 0.94 0.81 60 1019.7
20260506210518 45 0.0 3.0 0.13 0.93 0.80 63 1020.2
20260506205518 45 135 1.0 5.0 0.14 0.92 0.79 60 1020.3
20260506204518 44 0.0 2.0 0.13 0.89 0.76 65 1020.1
20260506203518 42 315 1.0 4.0 0.12 0.86 0.73 63 1019.9
20260506202519 43 158 1.0 5.0 0.13 0.85 0.72 60 1020.4
20260506201518 43 0.0 3.0 0.13 0.82 0.69 69 1020.6
20260506200518 42 0.0 1.0 0.15 0.80 0.67 66 1020.3
20260506195518 42 0.0 1.0 0.18 0.78 0.65 68 1020.4
20260506194518 41 338 1.0 2.0 0.20 0.76 0.63 62 1020.3
20260506193538 42 113 1.0 2.0 0.22 0.74 0.61 57 1020.4
20260506192518 43 0.0 2.0 0.22 0.72 0.59 64 1020.9
20260506191518 43 0.0 1.0 0.22 0.69 0.56 59 1021.0
20260506190518 44 0.0 1.0 0.20 0.65 0.52 60 1021.2
20260506185518 42 0.0 1.0 0.17 0.60 0.47 65 1021.1
20260506184520 41 0.0 2.0 0.15 0.56 0.43 66 1021.0
20260506183520 41 0.0 1.0 0.14 0.52 0.39 64 1021.1
20260506182520 41 0.0 0.0 0.15 0.52 0.37 68 1020.9
20260506181520 40 0.0 0.0 0.15 0.51 0.34 68 1021.0
20260506180540 40 0.0 1.0 0.17 0.51 0.32 77 1021.0
20260506175520 39 0.0 1.0 0.18 0.52 0.30 72 1021.1
20260506174520 41 0.0 1.0 0.17 0.51 0.28 71 1021.4
20260506173520 40 0.0 1.0 0.15 0.50 0.25 71 1021.0
20260506172521 40 0.0 1.0 0.13 0.48 0.22 73 1020.9
20260506171540 41 0.0 1.0 0.11 0.47 0.19 69 1021.3
20260506170520 40 293 1.0 2.0 0.08 0.44 0.15 72 1020.9
20260506165540 39 0.0 1.0 0.06 0.43 0.12 80 1020.9
20260506164520 38 0.0 1.0 0.05 0.43 0.11 84 1020.6
20260506163520 37 315 1.0 3.0 0.04 0.44 0.09 81 1020.0
20260506162520 37 0.0 2.0 0.04 0.44 0.09 82 1020.1
20260506161520 38 0.0 2.0 0.03 0.44 0.08 88 1020.3
20260506160520 37 0.0 0.0 0.02 0.44 0.07 88 1020.3
20260506155520 36 0.0 1.0 0.01 0.44 0.06 89 1019.8
20260506154520 35 0.0 2.0 0.01 0.46 0.06 89 1019.8
20260506153540 35 0.0 2.0 0.01 0.47 0.06 91 1019.8
20260506152520 35 0.0 0.0 0.01 0.48 0.05 91 1019.6
20260506151520 35 0.0 0.0 0.01 0.49 0.05 93 1019.6
20260506150520 34 0.0 0.0 0.01 0.50 0.05 94 1019.6
20260506145520 33 0.0 0.0 0.01 0.51 0.05 94 1019.1
20260506144520 33 0.0 0.0 0.01 0.53 0.05 95 1019.2
20260506143520 33 0.0 0.0 0.01 0.54 0.05 95 1019.2
20260506142521 33 0.0 0.0 0.00 0.54 0.04 95 1019.1
20260506141520 32 0.0 0.0 0.00 0.55 0.04 95 1019.0
20260506140520 33 0.0 0.0 0.00 0.56 0.04 96 1018.6
20260506135520 32 0.0 0.0 0.00 0.56 0.04 95 1018.6
20260506134540 32 0.0 0.0 0.00 0.56 0.04 95 1018.5
20260506133520 32 0.0 0.0 0.00 0.56 0.04 96 1018.4
20260506132520 32 0.0 0.0 0.00 0.57 0.04 96 1018.2
20260506131520 32 0.0 0.0 0.00 0.58 0.04 96 1018.1
20260506130520 32 0.0 0.0 0.00 0.58 0.04 96 1017.8
20260506125520 32 0.0 0.0 0.00 0.59 0.04 96 1017.7
20260506124520 32 0.0 0.0 0.00 0.59 0.04 96 1017.7
20260506123520 32 0.0 0.0 0.00 0.60 0.04 96 1017.5
20260506122520 32 0.0 0.0 0.00 0.60 0.04 96 1017.3
20260506121540 32 0.0 0.0 0.00 0.61 0.04 96 1017.2
20260506120520 33 0.0 0.0 0.00 0.62 0.04 96 1017.1
20260506115540 33 0.0 0.0 0.00 0.62 0.04 96 1017.4
20260506114520 33 0.0 0.0 0.00 0.63 0.04 96 1017.3
20260506113520 33 0.0 0.0 0.01 0.63 0.04 96 1017.1
20260506112520 33 0.0 0.0 0.01 0.63 0.04 97 1016.8
20260506111520 33 0.0 0.0 0.01 0.63 0.04 97 1016.8
20260506110539 33 0.0 0.0 0.01 0.63 0.04 97 1016.7
20260506105519 33 0.0 0.0 0.01 0.63 0.04 97 1016.6
20260506104520 33 0.0 0.0 0.01 0.63 0.04 97 1016.4
20260506103519 33 0.0 0.0 0.00 0.62 0.03 97 1016.4
20260506102520 33 0.0 0.0 0.00 0.63 0.03 97 1016.5
20260506101520 33 0.0 0.0 0.00 0.65 0.03 97 1016.3
20260506100520 33 0.0 0.0 0.00 0.68 0.03 97 1016.5
20260506095519 33 0.0 0.0 0.00 0.69 0.03 97 1016.5
20260506094600 33 0.0 0.0 0.00 0.70 0.03 97 1016.5
20260506093520 33 0.0 0.0 0.00 0.71 0.03 97 1016.3
20260506092539 33 0.0 0.0 0.00 0.71 0.03 97 1016.3
20260506091600 33 0.0 0.0 0.00 0.72 0.03 97 1016.2
20260506090519 33 0.0 0.0 0.01 0.72 0.03 97 1016.1
20260506085520 33 0.0 0.0 0.01 0.74 0.03 97 1016.1
20260506084519 33 0.0 0.0 0.01 0.76 0.03 97 1016.1
20260506083520 33 0.0 0.0 0.01 0.78 0.03 97 1016.1
20260506082639 33 0.0 0.0 0.01 0.80 0.03 97 1016.2
20260506081519 33 0.0 0.0 0.01 0.81 0.03 97 1016.2
20260506080519 33 0.0 0.0 0.00 0.81 0.02 97 1016.0
20260506073519 33 0.0 0.0 0.01 0.83 0.02 97 1016.1
20260506072519 33 0.0 0.0 0.01 0.86 0.02 97 1016.0
20260506071601 33 0.0 0.0 0.01 0.89 0.02 97 1015.9
20260506070519 33 0.0 0.0 0.02 0.90 0.02 97 1016.3
20260506061519 33 0.0 0.0 0.02 0.91 0.01 97 1016.4
20260506060519 33 0.0 0.0 0.01 0.90 0.00 97 1016.4
20260506050519 33 0.0 0.0 0.01 0.89 0.89 97 1015.0
20260506044519 33 0.0 1.0 0.01 0.89 0.89 97 1014.8
20260506043519 33 0.0 0.0 0.01 0.89 0.89 97 1014.6
20260506042519 33 0.0 0.0 0.01 0.89 0.89 97 1014.7
20260506041519 33 0.0 0.0 0.01 0.89 0.89 97 1014.6
20260506040539 33 0.0 0.0 0.00 0.88 0.88 96 1014.3
20260506035519 33 0.0 0.0 0.01 0.88 0.88 97 1014.1
20260506034519 33 0.0 0.0 0.01 0.88 0.88 97 1014.1
20260506033519 34 0.0 0.0 0.01 0.88 0.88 97 1014.0
20260506032519 34 0.0 0.0 0.02 0.88 0.88 97 1013.9
20260506031519 34 0.0 0.0 0.02 0.88 0.88 96 1013.6
20260506030519 34 0.0 0.0 0.02 0.88 0.88 97 1013.6
20260506025519 34 0.0 0.0 0.02 0.87 0.87 97 1013.5
20260506024519 34 0.0 0.0 0.02 0.87 0.87 97 1013.2
20260506023539 34 0.0 0.0 0.02 0.87 0.87 97 1012.9
20260506022519 34 0.0 0.0 0.02 0.86 0.86 97 1012.7
20260506021519 34 0.0 0.0 0.02 0.86 0.86 97 1012.5
20260506020519 34 0.0 0.0 0.02 0.86 0.86 96 1011.8
20260506015519 34 0.0 0.0 0.02 0.85 0.85 96 1011.7
20260506014519 34 0.0 0.0 0.02 0.85 0.85 96 1011.6
20260506013519 34 0.0 0.0 0.02 0.85 0.85 96 1011.6
20260506012519 33 0.0 0.0 0.01 0.84 0.84 96 1011.2
20260506011519 33 0.0 0.0 0.02 0.84 0.84 96 1011.0
20260506010519 33 0.0 0.0 0.02 0.84 0.84 96 1011.0
20260506005539 34 0.0 0.0 0.01 0.83 0.83 96 1011.0
20260506004519 34 0.0 0.0 0.01 0.83 0.83 96 1010.9